TimeCST,TemperatureF,Dew PointF,Humidity,Sea Level PressureIn,VisibilityMPH,Wind Direction,Wind SpeedMPH,Gust SpeedMPH,PrecipitationIn,Events,Conditions,WindDirDegrees,DateUTC
12:32 AM,62.6,60.8,94,30.20,7.0,ESE,9.2,-,N/A,,Overcast,120,2005-01-01 06:32:00
12:53 AM,64.0,60.1,87,30.21,6.0,ESE,8.1,-,N/A,,Overcast,110,2005-01-01 06:53:00
1:53 AM,64.0,60.1,87,30.20,6.0,ESE,6.9,-,N/A,,Overcast,110,2005-01-01 07:53:00
2:01 AM,64.4,60.8,88,30.19,6.0,ESE,8.1,-,N/A,,Overcast,120,2005-01-01 08:01:00
2:17 AM,64.4,60.8,88,30.19,6.0,ESE,9.2,-,N/A,,Overcast,120,2005-01-01 08:17:00
2:53 AM,64.0,61.0,90,30.20,5.0,SE,9.2,-,N/A,,Overcast,130,2005-01-01 08:53:00
3:53 AM,64.0,61.0,90,30.19,-9999.0,ESE,8.1,-,N/A,,Overcast,120,2005-01-01 09:53:00
4:34 AM,64.4,60.8,88,30.17,-9999.0,ESE,10.4,-,N/A,,Overcast,110,2005-01-01 10:34:00
4:53 AM,63.0,60.1,90,30.18,-9999.0,East,8.1,-,N/A,,Scattered Clouds,100,2005-01-01 10:53:00
5:40 AM,62.6,60.8,94,30.18,4.0,ESE,8.1,-,N/A,,Partly Cloudy,110,2005-01-01 11:40:00
6:06 AM,62.6,60.8,94,30.19,4.0,ESE,6.9,-,N/A,,Mostly Cloudy,120,2005-01-01 12:06:00
6:53 AM,64.0,61.0,90,30.22,5.0,ESE,10.4,-,N/A,,Overcast,110,2005-01-01 12:53:00
7:53 AM,64.9,61.0,87,30.22,5.0,SE,9.2,-,N/A,,Overcast,130,2005-01-01 13:53:00
8:53 AM,64.9,62.1,90,30.23,4.0,SE,9.2,-,0.00,,Overcast,130,2005-01-01 14:53:00
9:53 AM,66.9,63.0,87,30.25,6.0,SE,8.1,-,0.00,,Overcast,130,2005-01-01 15:53:00
10:53 AM,66.9,63.0,87,30.25,2.0,SSE,11.5,-,0.03,Rain,Rain,150,2005-01-01 16:53:00
11:00 AM,66.2,62.6,88,30.23,1.5,SSE,10.4,-,0.03,Rain,Heavy Rain,150,2005-01-01 17:00:00
11:19 AM,66.2,64.4,94,30.23,2.0,SE,10.4,-,0.07,Rain,Light Rain,140,2005-01-01 17:19:00
11:33 AM,68.0,64.4,88,30.23,3.0,SE,9.2,-,0.07,Rain,Light Rain,140,2005-01-01 17:33:00
11:53 AM,68.0,64.0,87,30.22,3.0,SE,10.4,-,0.07,Rain,Light Rain,130,2005-01-01 17:53:00
12:05 PM,68.0,64.4,88,30.21,2.0,SE,11.5,-,0.02,Rain,Rain,130,2005-01-01 18:05:00
12:28 PM,68.0,66.2,94,30.20,3.0,SE,8.1,-,0.04,,Overcast,130,2005-01-01 18:28:00
12:53 PM,69.1,64.9,87,30.20,3.0,SSE,11.5,-,0.04,,Overcast,150,2005-01-01 18:53:00
1:53 PM,70.0,64.9,84,30.19,4.0,ESE,9.2,-,N/A,,Haze,120,2005-01-01 19:53:00
2:00 PM,69.8,64.4,83,30.18,2.5,SE,10.4,-,0.00,Rain,Light Rain,130,2005-01-01 20:00:00
2:04 PM,69.8,66.2,88,30.18,1.8,SE,9.2,-,0.00,Rain,Light Rain,130,2005-01-01 20:04:00
2:10 PM,69.8,66.2,88,30.18,3.0,SSE,11.5,-,0.00,Rain,Light Rain,150,2005-01-01 20:10:00
2:32 PM,69.8,64.4,83,30.18,2.5,SE,8.1,-,0.01,Rain,Light Rain,130,2005-01-01 20:32:00
2:42 PM,69.8,66.2,88,30.18,1.0,SE,9.2,-,0.11,Rain,Heavy Rain,140,2005-01-01 20:42:00
2:53 PM,69.1,66.0,90,30.18,0.8,East,8.1,-,0.23,Rain,Rain,100,2005-01-01 20:53:00
2:58 PM,69.8,66.2,88,30.16,2.0,NE,4.6,-,0.03,Rain,Rain,40,2005-01-01 20:58:00
3:04 PM,68.0,64.4,88,30.17,-9999.0,West,9.2,-,0.03,Rain,Light Rain,270,2005-01-01 21:04:00
3:11 PM,69.8,64.4,83,30.18,2.0,SW,6.9,-,0.05,Rain,Rain,220,2005-01-01 21:11:00
3:14 PM,69.8,64.4,83,30.17,1.5,Variable,6.9,-,0.06,Rain,Heavy Rain,0,2005-01-01 21:14:00
3:23 PM,69.8,66.2,88,30.16,3.0,ESE,8.1,-,0.06,Rain,Light Rain,110,2005-01-01 21:23:00
3:34 PM,69.8,66.2,88,30.16,5.0,ESE,6.9,-,0.06,Rain,Light Rain,110,2005-01-01 21:34:00
3:53 PM,70.0,66.0,87,30.18,6.0,SE,9.2,-,0.06,,Partly Cloudy,130,2005-01-01 21:53:00
4:53 PM,70.0,64.9,84,30.19,7.0,SE,10.4,-,N/A,,Overcast,130,2005-01-01 22:53:00
5:53 PM,66.9,64.0,90,30.20,5.0,ESE,4.6,-,N/A,,Overcast,120,2005-01-01 23:53:00
6:53 PM,68.0,64.0,87,30.21,5.0,ESE,6.9,-,N/A,,Overcast,110,2005-01-02 00:53:00
7:14 PM,68.0,64.4,88,30.20,5.0,SE,8.1,-,N/A,,Overcast,130,2005-01-02 01:14:00
7:28 PM,68.0,64.4,88,30.20,5.0,ESE,10.4,-,N/A,,Overcast,120,2005-01-02 01:28:00
7:53 PM,68.0,64.0,87,30.22,5.0,ESE,8.1,-,N/A,,Overcast,120,2005-01-02 01:53:00
8:16 PM,68.0,64.4,88,30.21,6.0,ESE,10.4,-,N/A,,Mostly Cloudy,120,2005-01-02 02:16:00
8:53 PM,68.0,64.0,87,30.22,7.0,ESE,10.4,-,N/A,,Overcast,120,2005-01-02 02:53:00
9:53 PM,66.9,64.0,90,30.22,6.0,SE,8.1,-,N/A,,Mostly Cloudy,140,2005-01-02 03:53:00
10:08 PM,66.2,64.4,94,30.22,7.0,SE,8.1,-,N/A,,Overcast,140,2005-01-02 04:08:00
10:15 PM,66.2,64.4,94,30.22,7.0,SSE,8.1,-,N/A,,Overcast,150,2005-01-02 04:15:00
10:44 PM,66.2,64.4,94,30.22,7.0,SSE,6.9,-,N/A,,Overcast,150,2005-01-02 04:44:00
10:53 PM,66.0,64.0,93,30.24,7.0,SSE,5.8,-,N/A,,Overcast,150,2005-01-02 04:53:00
11:53 PM,66.9,64.0,90,30.23,7.0,ESE,8.1,-,N/A,,Overcast,120,2005-01-02 05:53:00